sat.trackr.live / text

‹ back to catalog

IRIDIUM 160

NORAD 43569 · 2018-061A

PAYLOAD ACTIVE UNKNOWN

§ Identity

Operator
Country
US
Launch date
2018-07-25
Launch site
AFWTR
Launch vehicle
Mass (kg)
RCS (m²)

Purposes: comms

External: N2YO · Heavens-Above · Gunter

§ Orbital elements

Epoch: 2026-09-20T02:02:30.284736Z

Period
100.40 min
Inclination
86.4010°
Eccentricity
0.0002149
Mean motion
14.34218443 rev/d
Perigee alt
776.1 km
Apogee alt
779.2 km
Semi-major
7,155.8 km
B*
3.5445e-5
RAAN
17.1116°
Arg perigee
95.6569°
Mean anomaly
264.4872°
Rev number
42,697

§ Raw data

IRIDIUM 1601 43569U 18061A   26263.08507274  .00000119  00000+0  35445-4 0  99902 43569  86.4010  17.1116 0002149  95.6569 264.4872 14.34218443426976

JSON: /api/v1/satellites/43569 · /tle

For live sub-satellite position, see the globe view (requires WebGL).

§ Visibility from observer

Set your observer location to see the next 7 days of passes ≥ 10°. The values pass through the URL so the page stays shareable.

No JS? Fill the form by hand. The geolocation button needs JavaScript.